Location: Juzet
(42.9779°N, 0.7597°E)
Time: 08:34:25
(UTC+00:00)

Landsat 5 - Pass Details

Date: 14 July 2020
Orbit: 528 x 654 km, 98.2° (Epoch: 04 August)

Event Time Altitude Azimuth Distance (km) Brightness Sun altitude
Rises 03:06:37 0° 153° (SSE) 2,723 6.7 -12.8°
Reaches altitude 10° 03:08:48 10° 148° (SSE) 1,817 5.8 -12.5°
Maximum altitude 03:12:35 50° 73° (ENE) 694 4.2 -12.1°
Drops below altitude 10° 03:16:19 10° 358° (N) 1,792 6.6 -11.6°
Sets 03:18:27 0° 353° (N) 2,681 7.4 -11.3°
